Time,TemperatureF,DewpointF,PressureIn,WindDirection,WindDirectionDegrees,WindSpeedMPH,WindSpeedGustMPH,Humidity,HourlyPrecipIn,Conditions,Clouds,dailyrainin,SolarRadiationWatts/m^2,SoftwareType,DateUTC
2013-09-14 00:03:00,57.0,51.0,-100.00,SE,138,0.0,2.0,79,0.00,,,0.00,0.000000,,2013-09-14 05:03:00,
2013-09-14 00:43:00,55.0,50.0,-100.00,SE,127,0.0,3.0,84,0.00,,,0.00,0.000000,,2013-09-14 05:43:00,
2013-09-14 00:52:00,55.0,50.0,-100.00,SE,127,0.0,3.0,84,0.00,,,0.00,0.000000,,2013-09-14 05:52:00,
2013-09-14 01:02:00,55.0,50.0,-100.00,SE,127,0.0,3.0,84,0.00,,,0.00,0.000000,,2013-09-14 06:02:00,
2013-09-14 01:42:00,54.0,50.0,-100.00,SE,139,0.0,0.0,87,0.00,,,0.00,0.000000,,2013-09-14 06:42:00,
2013-09-14 01:52:00,54.0,50.0,-100.00,SE,139,0.0,0.0,87,0.00,,,0.00,0.000000,,2013-09-14 06:52:00,
2013-09-14 02:02:00,54.0,50.0,-100.00,SE,139,0.0,0.0,87,0.00,,,0.00,0.000000,,2013-09-14 07:02:00,
2013-09-14 02:42:00,52.0,50.0,-100.00,SE,141,0.0,0.0,93,0.00,,,-99.99,0.000000,,2013-09-14 07:42:00,
2013-09-14 02:52:00,52.0,50.0,-100.00,SE,141,0.0,0.0,93,0.00,,,-99.99,0.000000,,2013-09-14 07:52:00,
2013-09-14 03:02:00,52.0,50.0,-100.00,SE,141,0.0,0.0,93,0.00,,,-99.99,0.000000,,2013-09-14 08:02:00,
2013-09-14 03:42:00,50.0,49.0,-100.00,WSW,239,0.0,3.0,96,0.00,,,0.00,0.000000,,2013-09-14 08:42:00,
2013-09-14 03:52:00,50.0,49.0,-100.00,WSW,239,0.0,3.0,96,0.00,,,0.00,0.000000,,2013-09-14 08:52:00,
2013-09-14 04:02:00,50.0,49.0,-100.00,WSW,239,0.0,3.0,96,0.00,,,0.00,0.000000,,2013-09-14 09:02:00,
2013-09-14 04:43:00,51.0,49.0,-100.00,ESE,123,1.0,2.0,93,0.00,,,0.00,0.000000,,2013-09-14 09:43:00,
2013-09-14 04:54:00,51.0,49.0,-100.00,ESE,123,1.0,2.0,93,0.00,,,0.00,0.000000,,2013-09-14 09:54:00,
2013-09-14 05:03:00,51.0,49.0,-100.00,ESE,123,1.0,2.0,93,0.00,,,0.00,0.000000,,2013-09-14 10:03:00,
2013-09-14 05:42:00,50.0,48.0,-100.00,ENE,63,0.0,3.0,94,0.00,,,0.00,0.000000,,2013-09-14 10:42:00,
2013-09-14 05:53:00,50.0,48.0,-100.00,ENE,63,0.0,3.0,94,0.00,,,0.00,0.000000,,2013-09-14 10:53:00,
2013-09-14 06:02:00,50.0,48.0,-100.00,ENE,63,0.0,3.0,94,0.00,,,0.00,0.000000,,2013-09-14 11:02:00,
2013-09-14 06:42:00,49.0,48.0,-100.00,East,98,0.0,2.0,97,0.00,,,0.00,0.000000,,2013-09-14 11:42:00,
2013-09-14 06:52:00,49.0,48.0,-100.00,East,98,0.0,2.0,97,0.00,,,0.00,0.000000,,2013-09-14 11:52:00,
2013-09-14 07:02:00,49.0,48.0,-100.00,East,98,0.0,2.0,97,0.00,,,0.00,0.000000,,2013-09-14 12:02:00,
2013-09-14 07:42:00,48.0,47.0,-100.00,NNE,29,0.0,2.0,95,0.00,,,0.00,6.000000,,2013-09-14 12:42:00,
2013-09-14 07:52:00,48.0,47.0,-100.00,NNE,29,0.0,2.0,95,0.00,,,0.00,6.000000,,2013-09-14 12:52:00,
2013-09-14 08:01:00,48.0,47.0,-100.00,NNE,29,0.0,2.0,95,0.00,,,0.00,6.000000,,2013-09-14 13:01:00,
2013-09-14 08:42:00,55.0,51.0,-100.00,ENE,62,1.0,4.0,85,0.00,,,0.00,108.000000,,2013-09-14 13:42:00,
2013-09-14 08:52:00,55.0,51.0,-100.00,ENE,62,1.0,4.0,85,0.00,,,0.00,108.000000,,2013-09-14 13:52:00,
2013-09-14 09:02:00,55.0,51.0,-100.00,ENE,62,1.0,4.0,85,0.00,,,0.00,108.000000,,2013-09-14 14:02:00,
2013-09-14 09:42:00,62.0,52.0,-100.00,East,79,3.0,7.0,69,0.00,,,0.00,398.000000,,2013-09-14 14:42:00,
2013-09-14 09:52:00,62.0,52.0,-100.00,East,79,3.0,7.0,69,0.00,,,0.00,398.000000,,2013-09-14 14:52:00,
2013-09-14 10:02:00,62.0,52.0,-100.00,East,79,3.0,7.0,69,0.00,,,0.00,398.000000,,2013-09-14 15:02:00,
2013-09-14 10:43:00,66.0,49.0,-100.00,East,96,4.0,10.0,54,0.00,,,0.00,571.000000,,2013-09-14 15:43:00,
2013-09-14 10:53:00,66.0,49.0,-100.00,East,96,4.0,10.0,54,0.00,,,0.00,571.000000,,2013-09-14 15:53:00,
2013-09-14 11:03:00,66.0,49.0,-100.00,East,96,4.0,10.0,54,0.00,,,0.00,571.000000,,2013-09-14 16:03:00,
2013-09-14 11:44:00,68.0,45.0,-100.00,East,93,5.0,11.0,44,0.00,,,0.00,775.000000,,2013-09-14 16:44:00,
2013-09-14 11:54:00,68.0,45.0,-100.00,East,93,5.0,11.0,44,0.00,,,0.00,775.000000,,2013-09-14 16:54:00,
2013-09-14 12:03:00,68.0,45.0,-100.00,East,93,5.0,11.0,44,0.00,,,0.00,775.000000,,2013-09-14 17:03:00,
2013-09-14 12:43:00,70.0,46.0,-100.00,East,92,5.0,10.0,42,0.00,,,0.00,901.000000,,2013-09-14 17:43:00,
2013-09-14 12:54:00,70.0,46.0,-100.00,East,92,5.0,10.0,42,0.00,,,0.00,901.000000,,2013-09-14 17:54:00,
2013-09-14 13:02:00,70.0,46.0,-100.00,East,92,5.0,10.0,42,0.00,,,0.00,901.000000,,2013-09-14 18:02:00,
2013-09-14 13:43:00,72.0,46.0,-100.00,NE,41,5.0,10.0,39,0.00,,,0.00,963.000000,,2013-09-14 18:43:00,
2013-09-14 13:52:00,72.0,46.0,-100.00,NE,41,5.0,10.0,39,0.00,,,0.00,963.000000,,2013-09-14 18:52:00,
2013-09-14 14:02:00,72.0,46.0,-100.00,NE,41,5.0,10.0,39,0.00,,,0.00,963.000000,,2013-09-14 19:02:00,
2013-09-14 14:42:00,73.0,46.0,-100.00,ENE,70,4.0,8.0,38,0.00,,,0.00,943.000000,,2013-09-14 19:42:00,
2013-09-14 14:52:00,73.0,46.0,-100.00,ENE,70,4.0,8.0,38,0.00,,,0.00,943.000000,,2013-09-14 19:52:00,
2013-09-14 15:02:00,73.0,46.0,-100.00,ENE,70,4.0,8.0,38,0.00,,,0.00,943.000000,,2013-09-14 20:02:00,
2013-09-14 15:42:00,75.0,44.0,-100.00,ENE,72,4.0,12.0,33,0.00,,,0.00,881.000000,,2013-09-14 20:42:00,
2013-09-14 15:52:00,75.0,44.0,-100.00,ENE,72,4.0,12.0,33,0.00,,,0.00,881.000000,,2013-09-14 20:52:00,
2013-09-14 16:02:00,75.0,44.0,-100.00,ENE,72,4.0,12.0,33,0.00,,,0.00,881.000000,,2013-09-14 21:02:00,
2013-09-14 16:44:00,75.0,45.0,-100.00,ESE,109,5.0,10.0,34,0.00,,,0.00,737.000000,,2013-09-14 21:44:00,
2013-09-14 16:54:00,75.0,45.0,-100.00,ESE,109,5.0,10.0,34,0.00,,,0.00,737.000000,,2013-09-14 21:54:00,
2013-09-14 17:04:00,75.0,45.0,-100.00,ESE,109,5.0,10.0,34,0.00,,,0.00,737.000000,,2013-09-14 22:04:00,
2013-09-14 17:42:00,74.0,45.0,-100.00,East,82,4.0,8.0,35,0.00,,,0.00,544.000000,,2013-09-14 22:42:00,
2013-09-14 17:53:00,74.0,45.0,-100.00,East,82,4.0,8.0,35,0.00,,,0.00,544.000000,,2013-09-14 22:53:00,
2013-09-14 18:03:00,74.0,45.0,-100.00,East,82,4.0,8.0,35,0.00,,,0.00,544.000000,,2013-09-14 23:03:00,
2013-09-14 18:42:00,70.0,48.0,-100.00,ESE,119,2.0,7.0,46,0.00,,,0.00,266.000000,,2013-09-14 23:42:00,
2013-09-14 18:53:00,70.0,48.0,-100.00,ESE,119,2.0,7.0,46,0.00,,,0.00,266.000000,,2013-09-14 23:53:00,
2013-09-14 19:02:00,70.0,48.0,-100.00,ESE,119,2.0,7.0,46,0.00,,,0.00,266.000000,,2013-09-15 00:02:00,
2013-09-14 19:42:00,65.0,50.0,-100.00,ESE,122,0.0,4.0,58,0.00,,,0.00,84.000000,,2013-09-15 00:42:00,
2013-09-14 19:53:00,65.0,50.0,-100.00,ESE,122,0.0,4.0,58,0.00,,,0.00,84.000000,,2013-09-15 00:53:00,
2013-09-14 20:01:00,65.0,50.0,-100.00,ESE,122,0.0,4.0,58,0.00,,,0.00,84.000000,,2013-09-15 01:01:00,
2013-09-14 20:42:00,60.0,50.0,-100.00,East,86,0.0,2.0,70,0.00,,,0.00,0.000000,,2013-09-15 01:42:00,
2013-09-14 20:52:00,60.0,50.0,-100.00,East,86,0.0,2.0,70,0.00,,,0.00,0.000000,,2013-09-15 01:52:00,
2013-09-14 21:02:00,60.0,50.0,-100.00,East,86,0.0,2.0,70,0.00,,,0.00,0.000000,,2013-09-15 02:02:00,
2013-09-14 21:42:00,56.0,51.0,-100.00,NNE,19,0.0,0.0,82,0.00,,,0.00,0.000000,,2013-09-15 02:42:00,
2013-09-14 21:52:00,56.0,51.0,-100.00,NNE,19,0.0,0.0,82,0.00,,,0.00,0.000000,,2013-09-15 02:52:00,
2013-09-14 22:02:00,56.0,51.0,-100.00,NNE,19,0.0,0.0,82,0.00,,,0.00,0.000000,,2013-09-15 03:02:00,
2013-09-14 22:44:00,54.0,51.0,-100.00,ENE,61,0.0,0.0,89,0.00,,,0.00,0.000000,,2013-09-15 03:44:00,
2013-09-14 22:55:00,54.0,51.0,-100.00,ENE,61,0.0,0.0,89,0.00,,,0.00,0.000000,,2013-09-15 03:55:00,
2013-09-14 23:02:00,-999.0,-99.9,-100.00,ENE,61,0.0,0.0,-999,-99.99,,,-99.99,0.000000,,2013-09-15 04:02:00,
2013-09-14 23:43:00,52.0,50.0,-100.00,SE,137,0.0,0.0,94,0.00,,,0.00,0.000000,,2013-09-15 04:43:00,
2013-09-14 23:54:00,52.0,50.0,-100.00,SE,137,0.0,0.0,94,0.00,,,0.00,0.000000,,2013-09-15 04:54:00,